AirNav   Air Wisconsin pilot careers
 
 1095 users online  

VA99 Federhart-Ophelia Airport
Reedville, Virginia, USA

GOING TO REEDVILLE?


FAA INFORMATION EFFECTIVE 29 MARCH 2018

Location

FAA Identifier: VA99
Lat/Long: 37-54-21.4630N / 076-17-25.8000W
37-54.357717N / 076-17.430000W
37.9059619 / -76.2905000
(estimated)
Elevation: 13 ft. / 4 m (estimated)
Variation: 10W (1985)
From city: 4 miles N of REEDVILLE, VA
Time zone: UTC -4 (UTC -5 during Standard Time)
Zip code: 22473

Airport Operations

Airport use: Private use. Permission required prior to landing
Activation date: 02/1972
Control tower: no
ARTCC: WASHINGTON CENTER
FSS: LEESBURG FLIGHT SERVICE STATION
Attendance: UNATNDD
Wind indicator: yes
Segmented circle: no

Airport Communications

WX AWOS-3 at TGI (15 nm E): 119.8 (757-891-2246)
WX AWOS-3 at W75 (20 nm S): 118.45 (804-758-8592)

Nearby radio navigation aids

VOR radial/distance  VOR name  Freq  Var
PXTr177/23.5PATUXENT VORTAC117.6010W
HCMr043/33.9HARCUM VORTAC108.8007W
CCVr347/36.3CAPE CHARLES VORTAC112.2010W

 
NDB name  Hdg/Dist  Freq  Var  ID
PATUXENT177/23.440010WNHK -. .... -.-
ACCOM322/30.833611WBDB -... -.. -...
CAMBRIDGE208/39.835510WCGE -.-. --. .

Airport Services

Airframe service: NONE
Powerplant service: NONE

Runway Information

Runway N/S

Dimensions: 2200 x 80 ft. / 671 x 24 m
Surface: turf, in good condition
RUNWAY N  RUNWAY S
Traffic pattern: leftleft
Obstructions: 60 ft. trees, 150 ft. from runway
AND PLINE
70 ft. trees, 450 ft. from runway

Airport Ownership and Management from official FAA records

Ownership: Privately-owned
Owner: JOHN A. FEDERHART
BOX 247
OPHELIA, VA 22530-0247
Phone 804-453-3064
804-453-3064.
Manager: JOHN A. FEDERHART
BOX 247, 375 AIRSTRIP LANE
OPHELIA, VA 22530-0247
Phone 541-281-3358

Airport Operational Statistics

Aircraft based on the field: 3
Single engine airplanes: 3
    

Additional Remarks

DESIGNATED VA99.

Instrument Procedures

There are no published instrument procedures at VA99.

Some nearby airports with instrument procedures:

KTGI - Tangier Island Airport (15 nm E)
W75 - Hummel Field Airport (20 nm S)
W41 - Crisfield-Somerset County Airport (23 nm E)
KNHK - Patuxent River Naval Air Station (Trapnell Field) (24 nm N)
2W6 - St Mary's County Regional Airport (27 nm NW)
 
Loc | Ops | Rwys | IFR | FBO | Links
Com | Nav | Svcs | Stats | Notes

AirNav Hotels Sweepstakes
 
Area around VA99 (Federhart-Ophelia Airport)
 
Road maps at: MapQuest Bing Google
 
Aerial photo
WARNING: Photo may not be current or correct
Aerial photo of VA99 (Federhart-Ophelia Airport)
Photo taken 27-Mar-2006

Do you have a better or more recent aerial photo of Federhart-Ophelia Airport that you would like to share? If so, please send us your photo.

 
Sectional chart

 
Airport distance calculator
Flying to Federhart-Ophelia Airport? Find the distance to fly.

From to VA99

Sunrise and sunset
Times for 24-Apr-2018
 Local
(UTC-4)
 Zulu
(UTC)
Morning civil twilight05:5109:51
Sunrise06:1910:19
Sunset19:4823:48
Evening civil twilight20:1600:16

Current date and time
Zulu (UTC)  25-Apr-2018 01:29:59
Local (UTC-4)  24-Apr-2018 21:29:59
 
METAR
KTGI 
15nm E 
250112Z AUTO 10014G21KT 5SM OVC007 14/14 A2997 RMK AO1
KNUI 
16nm NW 
250116Z AUTO 07010G19KT 050V120 3SM -RA BR OVC005 13/13 A2997 RMK AO2 P0003 T01330128
KW75 
20nm S 
250115Z AUTO 12009G16KT 090V150 3SM OVC005 14/14 A2994 RMK AO1 P0002 T01370137
KNHK 
22nm N 
250052Z 08011KT 2SM RA BR SCT008 OVC013 14/12 A3000 RMK AO2 SLP159 P0016 T01390122
K2W6 
27nm NW 
250117Z AUTO 07006KT 5SM OVC004 12/11 A3001 RMK AO1
KXSA 
29nm W 
250115Z AUTO 08006KT 5SM RA OVC005 15/14 A2995 RMK AO2 T01450141
TAF
KNHK 
22nm N 
2323/2423 13009KT 9999 FEW050 BKN230 OVC280 QNH3032INS BECMG 2302/2304 11007KT 9999 FEW035 BKN180 OVC220 QNH3026INS FM240900 09008KT 9999 BKN035 BKN140 OVC180 641407 530905 541404 QNH3023INS FM241200 11012G18KT 9999 BKN030 OVC110 641209 530605 551107 QNH3021INS FM241500 11017G28KT 9000 -RA BKN030 OVC080 641209 530503 550807 QNH3001INS TEMPO 2418/2421 8000 -RA BR BKN020 OVC060 FM242100 09018G30KT 4800 RA BR OVC012 WS015/13050KT 641209 540009 550906 QNH2995INS AUTOMATED SENSOR METWATCH 2403 TIL 24
NOTAMs
Click for the latest NOTAMs
NOTAMs are issued by the DoD/FAA and will open in a separate window not controlled by AirNav.

 

 
 

Would you like to see your business listed on this page?

 If your business provides an interesting product or service to pilots, flight crews, aircraft, or users of the Federhart-Ophelia Airport, you should consider listing it here.  To start the listing process, click on the button below
 
Add a business
 

Other Pages about Federhart-Ophelia Airport

Update a link
 
Copyright © AirNav, LLC. All rights reserved. Privacy Policy  Contact